QPF
0.01 0.01 0.01 0.01 0.01 0.01 0.01 0.02 0.01 0.02 0.03 0.05 0.03 0.02 0.02 0.01 0.01 0.01 0.03 0.03 0.04 0.04 0.03 0.03 0.03 0.03 0.03 0.03 0.03 0.05 0.05 0.05 0.05 0.03 0.03 0.03 0.03 0.03 0.04 0.05 0.04 0.04 0.05
0.01 0.01 0.01 0.00 0.00 0.01 0.01 0.01 0.01 0.02 0.04 0.04 0.03 0.02 0.01 0.01 0.01 0.02 0.03 0.03 0.03 0.06 0.08 0.09 0.07 0.06 0.05 0.04 0.03 0.05 0.06 0.05 0.05 0.04 0.03 0.03 0.02 0.02 0.03 0.03 0.03 0.04 0.07
0.02 0.01 0.01 0.00 0.00 0.00 0.01 0.01 0.01 0.02 0.04 0.04 0.02 0.01 0.02 0.02 0.01 0.02 0.02 0.03 0.04 0.06 0.10 0.11 0.10 0.09 0.07 0.06 0.04 0.04 0.05 0.05 0.04 0.04 0.04 0.03 0.03 0.02 0.03 0.03 0.04 0.07 0.08
0.02 0.01 0.01 0.01 0.01 0.00 0.00 0.01 0.01 0.03 0.04 0.02 0.01 0.01 0.01 0.01 0.01 0.01 0.02 0.03 0.04 0.07 0.09 0.10 0.10 0.07 0.06 0.06 0.05 0.03 0.03 0.04 0.03 0.03 0.04 0.05 0.05 0.05 0.05 0.04 0.03 0.06 0.06
0.03 0.03 0.05 0.06 0.04 0.02 0.01 0.01 0.02 0.03 0.02 0.01 0.00 0.00 0.01 0.00 0.01 0.01 0.02 0.02 0.03 0.04 0.04 0.04 0.04 0.04 0.04 0.04 0.04 0.03 0.03 0.03 0.03 0.03 0.03 0.04 0.05 0.04 0.05 0.04 0.03 0.02 0.03
0.04 0.05 0.04 0.04 0.05 0.04 0.02 0.03 0.03 0.02 0.02 0.01 0.01 0.01 0.01 0.01 0.01 0.01 0.02 0.02 0.02 0.02 0.01 0.02 0.02 0.02 0.03 0.03 0.03 0.03 0.03 0.03 0.03 0.02 0.03 0.04 0.04 0.03 0.04 0.03 0.03 0.02 0.01
0.07 0.05 0.03 0.03 0.02 0.02 0.02 0.03 0.02 0.02 0.02 0.02 0.02 0.01 0.01 0.01 0.02 0.02 0.02 0.02 0.02 0.02 0.01 0.01 0.01 0.02 0.02 0.03 0.03 0.03 0.03 0.04 0.04 0.03 0.02 0.02 0.02 0.03 0.05 0.04 0.03 0.02 0.01
0.02 0.03 0.04 0.03 0.02 0.03 0.02 0.02 0.02 0.02 0.02 0.02 0.01 0.02 0.01 0.01 0.01 0.01 0.01 0.01 0.01 0.01 0.02 0.01 0.02 0.02 0.03 0.03 0.03 0.03 0.03 0.03 0.03 0.03 0.02 0.02 0.02 0.02 0.04 0.05 0.04 0.03 0.01
0.02 0.03 0.05 0.05 0.04 0.04 0.05 0.04 0.05 0.06 0.06 0.04 0.03 0.03 0.02 0.01 0.01 0.01 0.01 0.01 0.01 0.02 0.02 0.02 0.02 0.02 0.03 0.03 0.03 0.04 0.04 0.05 0.04 0.03 0.03 0.03 0.03 0.04 0.04 0.04 0.05 0.06 0.04
0.03 0.03 0.04 0.04 0.05 0.06 0.09 0.07 0.07 0.10 0.13 0.10 0.07 0.05 0.03 0.02 0.02 0.02 0.02 0.02 0.02 0.02 0.02 0.02 0.02 0.02 0.02 0.02 0.03 0.03 0.03 0.04 0.04 0.04 0.03 0.03 0.03 0.04 0.03 0.04 0.05 0.06 0.07
0.07 0.09 0.05 0.03 0.04 0.05 0.08 0.07 0.07 0.08 0.09 0.09 0.07 0.05 0.04 0.03 0.02 0.02 0.02 0.02 0.02 0.02 0.02 0.02 0.03 0.03 0.04 0.06 0.05 0.04 0.04 0.04 0.04 0.04 0.04 0.05 0.05 0.05 0.05 0.06 0.06 0.05 0.06
0.09 0.11 0.05 0.03 0.03 0.03 0.04 0.04 0.04 0.04 0.04 0.04 0.03 0.02 0.03 0.03 0.02 0.02 0.02 0.02 0.02 0.02 0.02 0.02 0.02 0.02 0.03 0.04 0.03 0.03 0.03 0.03 0.04 0.05 0.04 0.04 0.06 0.07 0.07 0.06 0.05 0.05 0.05
0.11 0.10 0.05 0.02 0.02 0.02 0.02 0.03 0.03 0.02 0.02 0.02 0.01 0.01 0.01 0.01 0.02 0.02 0.02 0.02 0.03 0.02 0.02 0.02 0.01 0.01 0.01 0.02 0.02 0.02 0.02 0.03 0.03 0.04 0.04 0.05 0.08 0.06 0.05 0.05 0.05 0.06 0.06
0.06 0.05 0.04 0.02 0.01 0.01 0.01 0.02 0.02 0.01 0.01 0.01 0.00 0.01 0.01 0.01 0.01 0.02 0.02 0.03 0.02 0.03 0.02 0.02 0.01 0.01 0.01 0.01 0.02 0.02 0.02 0.02 0.02 0.04 0.05 0.06 0.06 0.05 0.06 0.05 0.05 0.05 0.04
0.06 0.03 0.02 0.01 0.01 0.01 0.01 0.02 0.01 0.01 0.01 0.01 0.01 0.01 0.01 0.01 0.01 0.01 0.01 0.02 0.03 0.02 0.01 0.02 0.02 0.01 0.02 0.02 0.02 0.03 0.03 0.02 0.03 0.04 0.05 0.06 0.07 0.08 0.08 0.05 0.04 0.04 0.03
0.06 0.04 0.03 0.02 0.01 0.01 0.01 0.02 0.02 0.02 0.02 0.03 0.02 0.01 0.02 0.02 0.02 0.01 0.01 0.01 0.02 0.02 0.03 0.03 0.04 0.03 0.04 0.04 0.04 0.05 0.05 0.05 0.05 0.06 0.07 0.08 0.08 0.08 0.06 0.04 0.03 0.03 0.03
0.06 0.05 0.03 0.02 0.02 0.01 0.01 0.01 0.02 0.02 0.03 0.03 0.02 0.01 0.02 0.02 0.02 0.02 0.02 0.03 0.03 0.04 0.05 0.05 0.04 0.04 0.04 0.05 0.08 0.10 0.11 0.11 0.12 0.10 0.09 0.08 0.07 0.06 0.04 0.03 0.03 0.03 0.03
0.03 0.03 0.04 0.03 0.03 0.03 0.03 0.03 0.03 0.03 0.03 0.03 0.03 0.02 0.02 0.02 0.01 0.02 0.02 0.03 0.04 0.04 0.04 0.04 0.04 0.04 0.03 0.05 0.06 0.08 0.08 0.08 0.10 0.10 0.07 0.04 0.03 0.02 0.02 0.03 0.02 0.02 0.02
0.06 0.06 0.06 0.05 0.05 0.04 0.04 0.04 0.03 0.03 0.02 0.02 0.03 0.04 0.03 0.02 0.02 0.02 0.02 0.02 0.02 0.02 0.01 0.02 0.02 0.02 0.03 0.04 0.04 0.05 0.05 0.05 0.05 0.04 0.03 0.03 0.02 0.02 0.02 0.02 0.02 0.01 0.01
0.06 0.06 0.05 0.04 0.03 0.02 0.03 0.03 0.04 0.04 0.03 0.02 0.02 0.03 0.03 0.02 0.02 0.02 0.02 0.02 0.02 0.02 0.02 0.02 0.02 0.02 0.02 0.03 0.03 0.05 0.04 0.04 0.04 0.02 0.01 0.02 0.02 0.02 0.02 0.02 0.02 0.01 0.01
0.09 0.08 0.07 0.06 0.05 0.04 0.04 0.04 0.04 0.04 0.04 0.04 0.03 0.03 0.03 0.03 0.02 0.03 0.03 0.03 0.02 0.02 0.02 0.03 0.02 0.02 0.02 0.03 0.04 0.05 0.04 0.04 0.03 0.02 0.01 0.00 0.01 0.01 0.01 0.02 0.02 0.01 0.02
0.04 0.06 0.07 0.09 0.08 0.06 0.04 0.03 0.03 0.04 0.04 0.04 0.04 0.04 0.03 0.03 0.03 0.03 0.03 0.03 0.03 0.02 0.02 0.02 0.02 0.02 0.03 0.03 0.03 0.04 0.04 0.05 0.03 0.01 0.01 0.01 0.01 0.01 0.01 0.01 0.01 0.01 0.01
0.01 0.02 0.06 0.07 0.06 0.05 0.04 0.04 0.04 0.04 0.03 0.03 0.03 0.03 0.03 0.03 0.03 0.04 0.03 0.03 0.03 0.03 0.02 0.02 0.02 0.02 0.03 0.03 0.03 0.03 0.04 0.05 0.03 0.02 0.03 0.03 0.02 0.02 0.02 0.02 0.02 0.01 0.01
0.01 0.02 0.04 0.07 0.07 0.07 0.07 0.07 0.06 0.04 0.03 0.02 0.02 0.02 0.02 0.03 0.03 0.04 0.04 0.04 0.03 0.03 0.02 0.02 0.02 0.02 0.03 0.03 0.03 0.03 0.04 0.05 0.05 0.05 0.06 0.06 0.05 0.04 0.03 0.02 0.02 0.02 0.02
0.02 0.04 0.07 0.06 0.06 0.07 0.08 0.08 0.07 0.05 0.04 0.02 0.01 0.01 0.01 0.01 0.02 0.02 0.03 0.03 0.03 0.03 0.04 0.03 0.03 0.03 0.03 0.03 0.03 0.04 0.04 0.05 0.05 0.04 0.03 0.03 0.02 0.02 0.01 0.01 0.01 0.01 0.01
0.04 0.04 0.06 0.09 0.09 0.08 0.08 0.07 0.06 0.05 0.04 0.02 0.01 0.01 0.01 0.01 0.01 0.01 0.01 0.02 0.02 0.02 0.03 0.03 0.03 0.02 0.02 0.02 0.02 0.02 0.02 0.02 0.02 0.02 0.01 0.01 0.01 0.01 0.01 0.01 0.01 0.01 0.01
MSLP
1015.88 1015.94 1015.97 1015.98 1015.98 1016.02 1016.11 1016.31 1016.61 1016.99 1017.41 1017.81 1018.11 1018.28 1018.30 1018.16 1017.91 1017.61 1017.32 1017.10 1016.98 1016.98 1017.06 1017.20 1017.35 1017.48 1017.55 1017.56 1017.52 1017.45 1017.38 1017.32 1017.29 1017.27 1017.24 1017.16 1017.02 1016.79 1016.47 1016.07 1015.64 1015.22 1014.83
1016.34 1016.46 1016.53 1016.53 1016.48 1016.43 1016.43 1016.53 1016.76 1017.11 1017.53 1017.96 1018.32 1018.56 1018.64 1018.54 1018.29 1017.97 1017.63 1017.34 1017.15 1017.07 1017.10 1017.21 1017.35 1017.46 1017.54 1017.56 1017.53 1017.47 1017.41 1017.38 1017.38 1017.39 1017.40 1017.37 1017.26 1017.04 1016.71 1016.27 1015.77 1015.23 1014.72
1016.42 1016.64 1016.78 1016.81 1016.76 1016.67 1016.61 1016.64 1016.82 1017.14 1017.57 1018.03 1018.46 1018.76 1018.90 1018.84 1018.62 1018.29 1017.92 1017.58 1017.32 1017.18 1017.15 1017.20 1017.30 1017.40 1017.46 1017.47 1017.44 1017.38 1017.34 1017.33 1017.36 1017.42 1017.48 1017.50 1017.44 1017.26 1016.94 1016.49 1015.93 1015.31 1014.68
1016.10 1016.45 1016.69 1016.80 1016.79 1016.71 1016.64 1016.64 1016.79 1017.10 1017.53 1018.02 1018.49 1018.86 1019.06 1019.06 1018.88 1018.56 1018.18 1017.80 1017.49 1017.29 1017.20 1017.20 1017.25 1017.30 1017.33 1017.32 1017.28 1017.22 1017.18 1017.18 1017.24 1017.34 1017.45 1017.53 1017.52 1017.39 1017.10 1016.65 1016.07 1015.39 1014.67
1015.45 1015.93 1016.30 1016.53 1016.60 1016.58 1016.54 1016.55 1016.69 1016.99 1017.42 1017.93 1018.44 1018.86 1019.12 1019.18 1019.04 1018.75 1018.37 1017.98 1017.64 1017.40 1017.25 1017.20 1017.19 1017.20 1017.19 1017.15 1017.08 1017.00 1016.94 1016.94 1017.01 1017.13 1017.27 1017.39 1017.44 1017.36 1017.11 1016.70 1016.12 1015.42 1014.65
1014.58 1015.19 1015.70 1016.07 1016.26 1016.33 1016.35 1016.39 1016.54 1016.84 1017.27 1017.78 1018.31 1018.76 1019.06 1019.17 1019.08 1018.83 1018.48 1018.10 1017.75 1017.48 1017.30 1017.20 1017.14 1017.10 1017.05 1016.96 1016.85 1016.73 1016.65 1016.62 1016.67 1016.78 1016.93 1017.08 1017.16 1017.12 1016.93 1016.56 1016.02 1015.34 1014.57
1013.64 1014.36 1015.02 1015.52 1015.85 1016.02 1016.11 1016.20 1016.37 1016.66 1017.08 1017.58 1018.10 1018.56 1018.88 1019.03 1018.98 1018.78 1018.46 1018.11 1017.77 1017.49 1017.29 1017.15 1017.06 1016.97 1016.87 1016.73 1016.57 1016.41 1016.28 1016.21 1016.21 1016.29 1016.42 1016.56 1016.66 1016.65 1016.51 1016.19 1015.72 1015.10 1014.37
1012.75 1013.57 1014.34 1014.97 1015.42 1015.70 1015.86 1016.00 1016.18 1016.46 1016.85 1017.32 1017.81 1018.26 1018.58 1018.74 1018.73 1018.57 1018.30 1017.97 1017.66 1017.38 1017.17 1017.01 1016.89 1016.76 1016.62 1016.44 1016.23 1016.01 1015.82 1015.69 1015.64 1015.66 1015.74 1015.85 1015.94 1015.96 1015.85 1015.60 1015.21 1014.67 1014.02
1012.01 1012.90 1013.75 1014.46 1015.00 1015.36 1015.59 1015.76 1015.95 1016.22 1016.57 1016.99 1017.44 1017.84 1018.15 1018.31 1018.31 1018.18 1017.94 1017.65 1017.36 1017.10 1016.89 1016.73 1016.58 1016.43 1016.25 1016.03 1015.78 1015.52 1015.27 1015.08 1014.95 1014.91 1014.93 1015.00 1015.06 1015.07 1015.00 1014.82 1014.50 1014.07 1013.53
1011.44 1012.34 1013.23 1013.99 1014.58 1014.98 1015.25 1015.45 1015.65 1015.89 1016.20 1016.57 1016.96 1017.31 1017.58 1017.73 1017.73 1017.61 1017.40 1017.14 1016.88 1016.64 1016.44 1016.27 1016.11 1015.94 1015.74 1015.50 1015.22 1014.92 1014.63 1014.38 1014.20 1014.09 1014.05 1014.06 1014.08 1014.08 1014.03 1013.89 1013.66 1013.33 1012.90
1010.99 1011.87 1012.74 1013.49 1014.08 1014.50 1014.79 1015.01 1015.20 1015.43 1015.71 1016.03 1016.37 1016.67 1016.89 1017.01 1017.00 1016.89 1016.70 1016.47 1016.23 1016.01 1015.81 1015.65 1015.49 1015.31 1015.11 1014.86 1014.57 1014.25 1013.94 1013.66 1013.43 1013.26 1013.17 1013.12 1013.10 1013.08 1013.03 1012.92 1012.75 1012.50 1012.17
1010.56 1011.39 1012.20 1012.90 1013.46 1013.86 1014.16 1014.38 1014.58 1014.81 1015.08 1015.37 1015.66 1015.92 1016.11 1016.20 1016.19 1016.08 1015.90 1015.69 1015.47 1015.27 1015.09 1014.93 1014.78 1014.60 1014.40 1014.16 1013.87 1013.56 1013.25 1012.96 1012.71 1012.51 1012.37 1012.27 1012.21 1012.16 1012.09 1011.99 1011.85 1011.65 1011.39
1010.08 1010.82 1011.53 1012.15 1012.65 1013.03 1013.32 1013.55 1013.78 1014.03 1014.31 1014.60 1014.88 1015.12 1015.29 1015.37 1015.35 1015.25 1015.09 1014.90 1014.70 1014.52 1014.35 1014.21 1014.06 1013.90 1013.70 1013.48 1013.21 1012.93 1012.63 1012.35 1012.10 1011.89 1011.72 1011.59 1011.48 1011.39 1011.29 1011.17 1011.03 1010.85 1010.62
1009.47 1010.11 1010.70 1011.22 1011.65 1012.00 1012.29 1012.56 1012.83 1013.13 1013.44 1013.76 1014.06 1014.31 1014.49 1014.58 1014.57 1014.49 1014.35 1014.19 1014.02 1013.86 1013.71 1013.57 1013.43 1013.28 1013.10 1012.89 1012.66 1012.40 1012.14 1011.88 1011.65 1011.44 1011.26 1011.10 1010.96 1010.82 1010.67 1010.51 1010.33 1010.13 1009.90
1008.73 1009.26 1009.74 1010.17 1010.53 1010.86 1011.16 1011.48 1011.82 1012.18 1012.56 1012.94 1013.28 1013.57 1013.77 1013.88 1013.90 1013.85 1013.75 1013.63 1013.49 1013.36 1013.23 1013.10 1012.97 1012.82 1012.65 1012.46 1012.25 1012.02 1011.79 1011.57 1011.36 1011.17 1010.99 1010.81 1010.63 1010.44 1010.24 1010.01 1009.78 1009.53 1009.26
1007.91 1008.34 1008.73 1009.08 1009.39 1009.71 1010.05 1010.42 1010.84 1011.29 1011.75 1012.20 1012.60 1012.93 1013.18 1013.33 1013.39 1013.39 1013.33 1013.25 1013.15 1013.05 1012.94 1012.83 1012.70 1012.55 1012.39 1012.20 1012.00 1011.79 1011.59 1011.41 1011.22 1011.05 1010.88 1010.69 1010.48 1010.24 1009.97 1009.68 1009.37 1009.05 1008.73
1007.11 1007.47 1007.79 1008.08 1008.38 1008.70 1009.08 1009.52 1010.02 1010.55 1011.10 1011.61 1012.07 1012.45 1012.74 1012.93 1013.04 1013.09 1013.09 1013.05 1013.00 1012.93 1012.84 1012.73 1012.60 1012.45 1012.27 1012.08 1011.88 1011.69 1011.51 1011.34 1011.18 1011.03 1010.86 1010.67 1010.44 1010.16 1009.84 1009.48 1009.09 1008.69 1008.30
1006.45 1006.77 1007.05 1007.32 1007.61 1007.96 1008.39 1008.90 1009.46 1010.06 1010.66 1011.23 1011.73 1012.14 1012.46 1012.69 1012.84 1012.93 1012.97 1012.98 1012.96 1012.92 1012.85 1012.75 1012.62 1012.45 1012.26 1012.05 1011.84 1011.65 1011.47 1011.32 1011.18 1011.05 1010.89 1010.70 1010.45 1010.15 1009.78 1009.36 1008.91 1008.44 1007.97
1006.03 1006.34 1006.61 1006.88 1007.19 1007.58 1008.05 1008.60 1009.22 1009.85 1010.48 1011.06 1011.57 1011.99 1012.32 1012.56 1012.73 1012.85 1012.92 1012.96 1012.98 1012.96 1012.90 1012.80 1012.66 1012.47 1012.26 1012.03 1011.80 1011.60 1011.43 1011.28 1011.16 1011.04 1010.89 1010.71 1010.46 1010.14 1009.74 1009.28 1008.78 1008.24 1007.71
1005.90 1006.22 1006.51 1006.81 1007.15 1007.57 1008.07 1008.65 1009.28 1009.92 1010.54 1011.10 1011.58 1011.98 1012.28 1012.51 1012.67 1012.80 1012.88 1012.94 1012.98 1012.97 1012.91 1012.81 1012.65 1012.44 1012.20 1011.95 1011.71 1011.49 1011.32 1011.18 1011.06 1010.96 1010.83 1010.66 1010.42 1010.09 1009.68 1009.20 1008.66 1008.08 1007.50
1006.07 1006.42 1006.74 1007.07 1007.44 1007.88 1008.40 1008.98 1009.59 1010.20 1010.78 1011.29 1011.71 1012.05 1012.31 1012.50 1012.64 1012.75 1012.83 1012.89 1012.91 1012.90 1012.84 1012.72 1012.54 1012.32 1012.06 1011.78 1011.53 1011.30 1011.12 1010.99 1010.88 1010.79 1010.68 1010.52 1010.29 1009.98 1009.57 1009.08 1008.52 1007.92 1007.30
1006.49 1006.88 1007.23 1007.59 1007.99 1008.44 1008.96 1009.52 1010.09 1010.64 1011.15 1011.58 1011.93 1012.20 1012.39 1012.52 1012.62 1012.69 1012.74 1012.78 1012.79 1012.76 1012.68 1012.54 1012.34 1012.09 1011.82 1011.53 1011.26 1011.02 1010.84 1010.71 1010.61 1010.53 1010.43 1010.29 1010.07 1009.78 1009.38 1008.90 1008.34 1007.73 1007.09
1007.11 1007.52 1007.90 1008.28 1008.69 1009.14 1009.64 1010.16 1010.68 1011.16 1011.58 1011.93 1012.20 1012.38 1012.50 1012.57 1012.62 1012.64 1012.66 1012.66 1012.64 1012.58 1012.47 1012.30 1012.07 1011.80 1011.50 1011.20 1010.92 1010.68 1010.49 1010.36 1010.26 1010.18 1010.10 1009.97 1009.77 1009.49 1009.11 1008.64 1008.10 1007.50 1006.86
1007.85 1008.27 1008.65 1009.04 1009.45 1009.89 1010.35 1010.82 1011.28 1011.68 1012.03 1012.30 1012.48 1012.59 1012.65 1012.66 1012.65 1012.63 1012.60 1012.56 1012.49 1012.39 1012.24 1012.04 1011.78 1011.48 1011.16 1010.84 1010.54 1010.30 1010.10 1009.96 1009.86 1009.78 1009.70 1009.57 1009.39 1009.13 1008.77 1008.33 1007.81 1007.23 1006.61
1008.64 1009.04 1009.42 1009.80 1010.19 1010.60 1011.02 1011.44 1011.83 1012.17 1012.44 1012.64 1012.76 1012.82 1012.82 1012.79 1012.73 1012.67 1012.59 1012.50 1012.39 1012.24 1012.04 1011.79 1011.50 1011.17 1010.82 1010.48 1010.17 1009.91 1009.70 1009.54 1009.43 1009.34 1009.26 1009.13 1008.96 1008.71 1008.38 1007.97 1007.48 1006.94 1006.35
1009.42 1009.80 1010.15 1010.50 1010.86 1011.23 1011.61 1011.97 1012.30 1012.58 1012.80 1012.95 1013.03 1013.04 1013.01 1012.95 1012.86 1012.76 1012.65 1012.51 1012.35 1012.14 1011.89 1011.60 1011.26 1010.89 1010.52 1010.16 1009.82 1009.54 1009.31 1009.14 1009.01 1008.90 1008.80 1008.68 1008.51 1008.28 1007.98 1007.61 1007.16 1006.66 1006.11
Thickness
5815 5816 5815 5814 5811 5808 5805 5803 5800 5798 5796 5793 5790 5787 5785 5786 5786 5786 5786 5784 5783 5781 5780 5778 5775 5773 5771 5769 5768 5766 5763 5761 5761 5757 5755 5758 5760 5760 5759 5758 5757 5756 5755
5811 5813 5814 5813 5811 5808 5806 5804 5801 5799 5797 5794 5792 5790 5788 5787 5786 5786 5785 5784 5783 5782 5780 5777 5775 5773 5771 5769 5767 5765 5761 5759 5759 5753 5748 5744 5747 5753 5757 5755 5754 5753 5752
5812 5812 5812 5812 5811 5808 5807 5807 5803 5800 5798 5796 5793 5790 5787 5785 5784 5783 5783 5783 5783 5781 5780 5777 5775 5773 5770 5767 5766 5764 5759 5755 5755 5754 5747 5739 5735 5741 5748 5751 5751 5750 5749
5816 5813 5812 5811 5811 5811 5811 5807 5804 5801 5799 5797 5793 5788 5784 5780 5781 5782 5782 5782 5782 5781 5779 5777 5775 5772 5770 5767 5765 5764 5760 5756 5751 5751 5750 5747 5744 5737 5735 5742 5746 5746 5746
5818 5815 5814 5814 5814 5814 5812 5809 5805 5802 5800 5797 5794 5789 5785 5783 5783 5782 5781 5780 5780 5780 5778 5777 5775 5772 5769 5767 5765 5762 5759 5756 5752 5749 5747 5745 5743 5740 5733 5731 5736 5740 5743
5819 5817 5816 5814 5814 5814 5812 5808 5803 5801 5799 5797 5793 5790 5786 5783 5781 5779 5777 5777 5777 5777 5777 5776 5774 5771 5768 5766 5764 5761 5759 5755 5752 5749 5746 5743 5739 5736 5733 5729 5730 5732 5738
5817 5815 5812 5811 5810 5810 5809 5807 5803 5799 5798 5796 5793 5790 5787 5784 5781 5778 5777 5775 5774 5774 5774 5774 5772 5769 5768 5765 5763 5760 5757 5755 5751 5748 5746 5744 5741 5739 5735 5731 5728 5728 5733
5816 5815 5813 5811 5810 5809 5807 5805 5801 5798 5796 5794 5792 5790 5787 5784 5781 5779 5777 5775 5774 5774 5773 5772 5770 5768 5766 5764 5761 5758 5755 5753 5750 5748 5746 5743 5742 5739 5736 5731 5726 5723 5725
5815 5813 5812 5810 5809 5807 5805 5803 5799 5796 5794 5792 5790 5787 5785 5783 5780 5779 5777 5775 5774 5773 5771 5770 5768 5766 5764 5762 5759 5755 5752 5750 5748 5746 5744 5742 5741 5739 5736 5733 5729 5722 5717
5809 5809 5809 5807 5807 5806 5803 5802 5798 5794 5792 5790 5788 5786 5783 5781 5779 5777 5774 5773 5772 5770 5769 5767 5765 5763 5761 5758 5756 5752 5750 5747 5745 5744 5742 5740 5739 5737 5735 5732 5728 5724 5719
5806 5806 5806 5806 5806 5805 5801 5797 5794 5792 5789 5788 5786 5783 5781 5779 5777 5774 5772 5771 5769 5767 5765 5763 5761 5759 5757 5755 5752 5749 5747 5744 5742 5741 5739 5737 5736 5733 5731 5729 5726 5722 5719
5804 5804 5804 5801 5799 5798 5797 5794 5793 5790 5788 5787 5784 5782 5780 5777 5774 5771 5770 5768 5766 5764 5762 5760 5757 5755 5753 5750 5748 5745 5744 5741 5738 5737 5735 5733 5732 5729 5727 5725 5722 5720 5718
5800 5798 5797 5795 5794 5793 5792 5791 5789 5788 5786 5784 5781 5778 5775 5773 5771 5769 5767 5765 5763 5761 5758 5756 5753 5751 5749 5746 5744 5742 5739 5737 5735 5733 5731 5729 5727 5724 5722 5720 5718 5717 5716
5792 5791 5789 5789 5790 5790 5789 5787 5785 5785 5783 5780 5777 5773 5771 5769 5768 5766 5764 5762 5760 5757 5754 5752 5749 5747 5745 5742 5740 5737 5735 5733 5731 5730 5728 5726 5724 5721 5719 5716 5713 5712 5710
5784 5784 5783 5782 5783 5783 5783 5782 5780 5779 5778 5775 5771 5769 5768 5766 5764 5762 5760 5758 5756 5754 5751 5747 5745 5743 5741 5738 5735 5733 5731 5727 5726 5724 5722 5721 5720 5719 5716 5713 5709 5707 5704
5779 5780 5780 5777 5776 5776 5775 5775 5774 5773 5772 5769 5766 5765 5763 5761 5759 5757 5755 5753 5750 5748 5745 5742 5739 5737 5736 5734 5731 5729 5725 5722 5719 5716 5715 5715 5714 5713 5711 5709 5706 5703 5699
5772 5773 5774 5773 5771 5771 5770 5768 5768 5767 5765 5763 5761 5759 5757 5755 5753 5752 5749 5746 5744 5741 5738 5736 5734 5732 5730 5729 5726 5722 5719 5715 5713 5710 5708 5708 5709 5706 5704 5702 5701 5698 5696
5768 5768 5768 5767 5766 5765 5765 5764 5762 5760 5757 5755 5754 5753 5751 5748 5747 5744 5742 5740 5737 5734 5732 5730 5729 5726 5725 5723 5720 5717 5713 5710 5707 5704 5703 5701 5700 5699 5697 5695 5693 5691 5690
5765 5764 5764 5762 5760 5758 5756 5754 5752 5751 5748 5745 5745 5745 5743 5742 5740 5737 5735 5734 5731 5728 5726 5724 5722 5720 5718 5717 5714 5710 5706 5702 5700 5699 5698 5695 5693 5693 5690 5687 5684 5682 5682
5759 5757 5756 5754 5751 5750 5749 5745 5741 5739 5738 5738 5738 5738 5738 5736 5733 5731 5729 5726 5724 5721 5720 5717 5715 5713 5711 5709 5707 5703 5699 5695 5693 5692 5691 5689 5687 5685 5682 5679 5676 5674 5674
5749 5749 5747 5744 5743 5743 5741 5736 5732 5730 5732 5732 5731 5730 5729 5728 5726 5724 5721 5718 5716 5713 5711 5709 5707 5705 5703 5701 5699 5695 5691 5688 5686 5684 5682 5681 5680 5677 5675 5672 5670 5669 5668
5738 5738 5736 5734 5734 5734 5731 5727 5724 5725 5726 5724 5722 5721 5720 5719 5718 5714 5712 5709 5706 5703 5701 5698 5697 5696 5694 5692 5690 5687 5684 5682 5678 5676 5675 5674 5672 5669 5667 5665 5663 5662 5659
5729 5728 5726 5723 5723 5723 5722 5717 5717 5717 5716 5714 5712 5711 5711 5709 5707 5704 5701 5699 5697 5693 5691 5688 5686 5685 5685 5682 5680 5678 5676 5674 5671 5669 5668 5665 5663 5661 5658 5657 5655 5652 5649
5721 5719 5715 5712 5711 5712 5711 5710 5709 5708 5707 5704 5702 5701 5699 5698 5697 5695 5692 5689 5686 5683 5681 5678 5676 5675 5673 5672 5670 5668 5666 5664 5661 5660 5658 5656 5654 5651 5650 5648 5646 5644 5641
5711 5710 5706 5704 5703 5703 5701 5701 5699 5698 5696 5694 5693 5692 5690 5688 5686 5684 5682 5680 5678 5676 5672 5670 5668 5665 5663 5664 5662 5658 5656 5655 5652 5649 5646 5645 5644 5641 5640 5639 5637 5636 5634
5702 5700 5698 5697 5695 5694 5691 5691 5689 5688 5686 5684 5683 5682 5680 5678 5676 5673 5671 5671 5670 5669 5667 5664 5661 5659 5658 5656 5653 5650 5649 5646 5643 5639 5637 5637 5636 5634 5633 5631 5630 5629 5627